Location: Black Skies Observatory
(44.7549°N, 79.7179°W)
Time: 16:11:17
(UTC-04:00)

Envisat - Visible Passes

Search period start: 31 October 2020 00:00
Search period end: 09 November 2020 23:00
Orbit: 764 x 766 km, 98.1° (Epoch: 31 October)

Date Brightness Start Highest point End Pass type
(mag) Time Alt. Az. Time Alt. Az. Time Alt. Az.
31 Oct 3.5 07:13:06 10° NNE 07:18:11 69° ESE 07:23:14 10° S visible
31 Oct 3.3 18:29:20 10° S 18:34:25 78° WSW 18:39:32 10° NNW visible
01 Nov 5.0 05:36:41 10° NNE 05:41:13 32° E 05:45:44 10° SSE visible
01 Nov 5.7 18:33:08 10° SW 18:36:59 21° W 18:40:51 10° NW visible
02 Nov 6.2 05:01:11 10° NE 05:04:03 15° E 05:06:55 10° ESE visible
02 Nov 4.3 17:55:04 10° S 17:59:55 45° W 18:04:48 10° NNW visible
03 Nov 3.9 06:01:47 10° NNE 06:06:47 54° E 06:11:44 10° S visible
03 Nov 6.4 19:00:39 10° WSW 19:02:43 12° W 19:04:48 10° WNW visible
04 Nov 5.4 05:25:34 10° NE 05:29:46 25° E 05:33:57 10° SSE visible
04 Nov 5.3 18:21:15 10° SSW 18:25:30 27° W 18:29:47 10° NW visible
05 Nov 6.4 04:50:46 10° ENE 04:52:32 12° E 04:54:17 10° ESE visible
05 Nov 3.0 06:27:08 10° NNE 06:32:15 88° WNW 06:37:19 10° SSW visible
05 Nov 3.8 17:43:31 10° S 17:48:30 57° W 17:53:31 10° NNW visible
06 Nov 4.4 05:50:31 10° NNE 05:55:22 43° E 06:00:11 10° S visible
06 Nov 6.1 18:48:10 10° SW 18:51:12 16° W 18:54:15 10° NW visible
07 Nov 5.7 05:14:31 10° NE 05:18:18 20° E 05:22:01 10° SE visible
07 Nov 4.9 18:09:29 10° SSW 18:14:02 33° W 18:18:38 10° NNW visible
08 Nov 3.3 06:15:46 10° NNE 06:20:52 74° ESE 06:25:56 10° S visible
08 Nov 3.4 17:32:02 10° S 17:37:06 72° WSW 17:42:12 10° NNW visible
09 Nov 4.8 05:39:17 10° NNE 05:43:55 34° E 05:48:31 10° SSE visible
09 Nov 5.8 18:36:02 10° SW 18:39:41 20° W 18:43:22 10° NW visible
